Find Kosmos-1491

NORAD ID: 14259 Int'l Des: 1983-084 Owner: GUKOS Country: SU Constellation: GLONASS operational
MEOCIRCULAR

Live Position

Loading 3D Globe...

About Kosmos-1491

Description loading...

Upcoming Passes

Passes for default location (London). Set your location on the main map for personalized predictions.

Altitude History

Loading altitude history...

Two-Line Element Set

1 14259U 83084B 26111.40640669 -.00000008 00000-0 00000+0 0 9998
2 14259 64.9905 60.0575 0020437 305.5920 156.6807 2.15434514334911
Epoch: Apr 21, 2026 • Age: 33 hours

Current Status

Altitude 18994.6 km
Velocity 3.96 km/s
Sub-Earth Point 64.38°N, 6.21°E
Launch Date Aug 10, 1983
Age 42.6 years
Type other

Technical Details

Classification Payload
Mass 1300.00 kg
Dry Mass 1200.00 kg
Total Mass 1300.00 kg
Length 4.00 m
Diameter 1.50 m
Span 7.80 m
Shape Cyl + Ant + 2 Pan
Manufacturer OAZ
Bus Type Uragan
Phase Status In Orbit
Owner/State GUKOS/SU

Most Searched